QPF
0.10 0.11 0.16 0.16 0.16 0.16 0.16 0.17 0.17 0.17 0.17 0.17 0.15 0.16 0.12 0.11 0.11 0.09 0.18 0.24 0.16 0.10 0.08 0.06 0.05 0.05 0.06 0.06 0.05 0.04 0.04 0.03 0.02 0.02 0.02 0.02 0.02 0.01 0.01 0.00 0.00 0.01 0.00
0.06 0.07 0.08 0.10 0.11 0.13 0.15 0.15 0.14 0.13 0.11 0.11 0.10 0.12 0.11 0.11 0.11 0.12 0.17 0.20 0.13 0.07 0.06 0.06 0.05 0.04 0.06 0.06 0.07 0.05 0.04 0.04 0.04 0.03 0.02 0.02 0.02 0.02 0.01 0.01 0.00 0.00 0.00
0.03 0.03 0.04 0.05 0.06 0.08 0.09 0.09 0.09 0.10 0.09 0.09 0.10 0.10 0.11 0.12 0.11 0.12 0.14 0.17 0.15 0.11 0.07 0.06 0.05 0.04 0.05 0.05 0.06 0.06 0.05 0.05 0.05 0.04 0.02 0.02 0.02 0.02 0.01 0.01 0.01 0.00 0.00
0.02 0.01 0.02 0.02 0.02 0.03 0.04 0.05 0.04 0.04 0.05 0.05 0.06 0.07 0.08 0.08 0.06 0.08 0.10 0.12 0.15 0.14 0.13 0.09 0.07 0.05 0.04 0.04 0.05 0.06 0.06 0.07 0.07 0.05 0.03 0.02 0.02 0.02 0.02 0.02 0.01 0.01 0.01
0.00 0.00 0.01 0.01 0.01 0.01 0.01 0.01 0.02 0.02 0.02 0.02 0.03 0.04 0.06 0.07 0.06 0.06 0.07 0.07 0.10 0.11 0.13 0.14 0.09 0.07 0.05 0.03 0.04 0.05 0.06 0.07 0.07 0.06 0.04 0.03 0.02 0.01 0.01 0.01 0.01 0.01 0.01
0.00 0.00 0.00 0.01 0.01 0.01 0.01 0.01 0.01 0.01 0.01 0.01 0.01 0.01 0.01 0.02 0.03 0.03 0.04 0.06 0.06 0.07 0.08 0.13 0.15 0.08 0.06 0.05 0.04 0.05 0.06 0.07 0.06 0.07 0.05 0.04 0.03 0.02 0.01 0.01 0.01 0.01 0.01
0.00 0.00 0.00 0.00 0.00 0.01 0.01 0.01 0.01 0.01 0.01 0.00 0.00 0.00 0.00 0.00 0.01 0.02 0.02 0.03 0.04 0.05 0.08 0.13 0.14 0.13 0.10 0.07 0.05 0.05 0.07 0.07 0.06 0.05 0.06 0.05 0.05 0.03 0.02 0.01 0.01 0.01 0.01
0.00 0.00 0.00 0.00 0.00 0.00 0.00 0.01 0.01 0.01 0.01 0.00 0.00 0.00 0.00 0.00 0.01 0.01 0.03 0.04 0.05 0.07 0.06 0.08 0.11 0.12 0.10 0.12 0.06 0.03 0.05 0.07 0.06 0.06 0.05 0.05 0.06 0.05 0.03 0.01 0.01 0.01 0.01
0.00 0.00 0.00 0.00 0.00 0.00 0.00 0.01 0.01 0.01 0.01 0.00 0.00 0.00 0.00 0.01 0.01 0.01 0.03 0.05 0.07 0.07 0.06 0.07 0.09 0.13 0.13 0.13 0.11 0.06 0.06 0.06 0.08 0.07 0.07 0.06 0.06 0.05 0.03 0.02 0.02 0.01 0.00
0.00 0.00 0.00 0.00 0.00 0.00 0.00 0.00 0.00 0.01 0.01 0.01 0.01 0.01 0.01 0.00 0.00 0.01 0.02 0.04 0.05 0.06 0.06 0.06 0.06 0.10 0.13 0.15 0.14 0.09 0.07 0.07 0.07 0.08 0.09 0.08 0.07 0.05 0.04 0.04 0.03 0.03 0.01
0.00 0.00 0.00 0.00 0.00 0.00 0.00 0.00 0.00 0.00 0.00 0.01 0.01 0.01 0.01 0.01 0.01 0.01 0.01 0.02 0.03 0.03 0.04 0.04 0.05 0.06 0.08 0.10 0.12 0.11 0.10 0.09 0.09 0.09 0.09 0.10 0.09 0.07 0.05 0.05 0.06 0.06 0.04
0.00 0.00 0.00 0.00 0.00 0.00 0.00 0.00 0.01 0.01 0.01 0.01 0.01 0.01 0.01 0.01 0.01 0.01 0.01 0.01 0.01 0.01 0.01 0.02 0.03 0.04 0.05 0.06 0.06 0.09 0.12 0.12 0.10 0.10 0.10 0.10 0.09 0.09 0.08 0.07 0.07 0.08 0.08
0.00 0.00 0.00 0.00 0.00 0.00 0.00 0.00 0.01 0.01 0.01 0.01 0.01 0.01 0.00 0.00 0.00 0.00 0.00 0.00 0.01 0.01 0.01 0.01 0.03 0.05 0.05 0.07 0.08 0.09 0.10 0.10 0.10 0.09 0.10 0.09 0.10 0.09 0.08 0.08 0.08 0.09 0.09
0.00 0.00 0.00 0.00 0.00 0.00 0.00 0.01 0.01 0.01 0.01 0.01 0.01 0.01 0.01 0.00 0.00 0.00 0.01 0.01 0.01 0.01 0.01 0.01 0.02 0.04 0.05 0.06 0.06 0.06 0.08 0.09 0.09 0.08 0.08 0.08 0.09 0.09 0.08 0.08 0.07 0.08 0.08
0.00 0.00 0.00 0.00 0.00 0.01 0.01 0.01 0.01 0.01 0.01 0.01 0.01 0.01 0.01 0.00 0.00 0.00 0.00 0.00 0.01 0.01 0.01 0.01 0.02 0.02 0.03 0.05 0.05 0.04 0.07 0.09 0.09 0.08 0.06 0.06 0.06 0.07 0.08 0.08 0.07 0.07 0.06
0.00 0.00 0.00 0.00 0.00 0.01 0.01 0.01 0.01 0.01 0.02 0.01 0.01 0.01 0.01 0.01 0.01 0.00 0.00 0.00 0.00 0.01 0.01 0.01 0.02 0.02 0.03 0.03 0.05 0.07 0.08 0.09 0.09 0.08 0.07 0.06 0.05 0.05 0.06 0.07 0.06 0.06 0.06
0.00 0.00 0.01 0.01 0.01 0.01 0.01 0.02 0.01 0.01 0.01 0.01 0.01 0.02 0.02 0.02 0.02 0.01 0.01 0.01 0.00 0.00 0.01 0.00 0.01 0.02 0.03 0.03 0.05 0.08 0.10 0.10 0.09 0.09 0.07 0.06 0.06 0.06 0.06 0.06 0.05 0.05 0.05
0.00 0.00 0.01 0.01 0.01 0.01 0.01 0.02 0.02 0.02 0.02 0.02 0.02 0.02 0.02 0.03 0.04 0.02 0.02 0.01 0.01 0.01 0.01 0.01 0.01 0.02 0.02 0.03 0.05 0.07 0.08 0.09 0.11 0.09 0.07 0.07 0.07 0.06 0.06 0.05 0.05 0.04 0.05
0.00 0.01 0.01 0.01 0.01 0.01 0.01 0.02 0.02 0.02 0.02 0.02 0.03 0.03 0.03 0.04 0.04 0.04 0.04 0.03 0.02 0.01 0.01 0.01 0.01 0.02 0.02 0.02 0.03 0.05 0.06 0.08 0.09 0.09 0.09 0.08 0.08 0.08 0.07 0.06 0.06 0.05 0.04
0.01 0.01 0.01 0.01 0.01 0.01 0.01 0.01 0.02 0.03 0.03 0.03 0.03 0.04 0.03 0.03 0.04 0.05 0.05 0.05 0.04 0.03 0.03 0.02 0.01 0.01 0.02 0.02 0.03 0.04 0.06 0.08 0.09 0.07 0.09 0.09 0.09 0.10 0.09 0.07 0.06 0.06 0.06
0.00 0.01 0.01 0.01 0.01 0.01 0.01 0.01 0.02 0.02 0.02 0.03 0.03 0.03 0.04 0.03 0.03 0.03 0.02 0.03 0.04 0.04 0.04 0.03 0.02 0.01 0.01 0.02 0.03 0.04 0.06 0.09 0.10 0.10 0.11 0.10 0.10 0.09 0.09 0.09 0.08 0.07 0.06
0.00 0.01 0.01 0.01 0.01 0.01 0.00 0.00 0.00 0.00 0.01 0.01 0.02 0.03 0.03 0.03 0.02 0.01 0.00 0.00 0.01 0.02 0.03 0.03 0.03 0.03 0.03 0.03 0.04 0.05 0.06 0.09 0.10 0.11 0.13 0.15 0.14 0.11 0.10 0.09 0.09 0.09 0.09
0.01 0.01 0.01 0.01 0.01 0.02 0.00 0.00 0.00 0.00 0.00 0.01 0.01 0.03 0.02 0.02 0.03 0.05 0.04 0.02 0.01 0.00 0.00 0.01 0.01 0.02 0.03 0.03 0.05 0.05 0.07 0.10 0.12 0.15 0.18 0.20 0.21 0.20 0.15 0.13 0.15 0.13 0.12
0.01 0.01 0.01 0.01 0.02 0.02 0.00 0.00 0.00 0.00 0.00 0.01 0.02 0.04 0.05 0.06 0.06 0.08 0.09 0.08 0.07 0.04 0.03 0.01 0.01 0.01 0.01 0.03 0.05 0.05 0.07 0.11 0.13 0.19 0.23 0.26 0.27 0.26 0.23 0.18 0.18 0.17 0.15
0.01 0.01 0.01 0.02 0.02 0.03 0.01 0.00 0.00 0.00 0.01 0.01 0.02 0.05 0.07 0.09 0.07 0.03 0.04 0.05 0.05 0.06 0.03 0.01 0.01 0.00 0.00 0.00 0.01 0.02 0.04 0.07 0.10 0.13 0.20 0.23 0.27 0.30 0.28 0.24 0.20 0.19 0.17
0.01 0.01 0.01 0.02 0.02 0.04 0.03 0.01 0.00 0.00 0.01 0.02 0.05 0.06 0.05 0.04 0.02 0.01 0.03 0.05 0.05 0.05 0.06 0.05 0.04 0.02 0.01 0.00 0.00 0.00 0.02 0.06 0.09 0.11 0.15 0.19 0.20 0.25 0.30 0.29 0.25 0.21 0.19
MSLP
1016.54 1016.61 1016.57 1016.48 1016.38 1016.31 1016.30 1016.32 1016.38 1016.43 1016.44 1016.41 1016.32 1016.17 1016.00 1015.83 1015.67 1015.56 1015.50 1015.50 1015.56 1015.69 1015.88 1016.14 1016.48 1016.89 1017.35 1017.85 1018.36 1018.86 1019.32 1019.75 1020.13 1020.47 1020.81 1021.14 1021.48 1021.84 1022.21 1022.56 1022.89 1023.19 1023.44
1016.56 1016.62 1016.59 1016.52 1016.43 1016.37 1016.34 1016.35 1016.38 1016.39 1016.39 1016.34 1016.24 1016.09 1015.91 1015.72 1015.53 1015.36 1015.23 1015.15 1015.13 1015.20 1015.35 1015.59 1015.94 1016.37 1016.86 1017.39 1017.93 1018.45 1018.93 1019.36 1019.74 1020.11 1020.46 1020.83 1021.21 1021.61 1022.02 1022.41 1022.76 1023.07 1023.33
1016.54 1016.60 1016.58 1016.54 1016.48 1016.43 1016.41 1016.40 1016.40 1016.39 1016.36 1016.29 1016.17 1016.01 1015.82 1015.60 1015.36 1015.13 1014.92 1014.76 1014.66 1014.66 1014.77 1014.99 1015.34 1015.78 1016.30 1016.86 1017.42 1017.95 1018.44 1018.87 1019.27 1019.64 1020.02 1020.41 1020.84 1021.28 1021.72 1022.15 1022.54 1022.87 1023.16
1016.48 1016.53 1016.54 1016.53 1016.51 1016.49 1016.48 1016.46 1016.44 1016.41 1016.34 1016.25 1016.12 1015.94 1015.73 1015.47 1015.20 1014.90 1014.62 1014.38 1014.21 1014.13 1014.19 1014.38 1014.71 1015.15 1015.68 1016.25 1016.83 1017.36 1017.85 1018.29 1018.69 1019.08 1019.47 1019.89 1020.35 1020.83 1021.31 1021.78 1022.21 1022.58 1022.89
1016.37 1016.43 1016.48 1016.51 1016.54 1016.55 1016.55 1016.53 1016.49 1016.43 1016.34 1016.22 1016.07 1015.88 1015.65 1015.38 1015.07 1014.73 1014.39 1014.07 1013.82 1013.68 1013.67 1013.81 1014.11 1014.53 1015.05 1015.61 1016.17 1016.71 1017.19 1017.63 1018.03 1018.42 1018.83 1019.27 1019.76 1020.27 1020.80 1021.30 1021.77 1022.18 1022.54
1016.24 1016.32 1016.40 1016.48 1016.55 1016.60 1016.62 1016.60 1016.55 1016.47 1016.35 1016.22 1016.06 1015.86 1015.63 1015.36 1015.03 1014.66 1014.28 1013.90 1013.59 1013.37 1013.29 1013.36 1013.60 1013.97 1014.44 1014.96 1015.50 1016.01 1016.48 1016.90 1017.30 1017.70 1018.12 1018.58 1019.09 1019.63 1020.19 1020.73 1021.24 1021.70 1022.10
1016.12 1016.22 1016.33 1016.46 1016.57 1016.66 1016.69 1016.68 1016.62 1016.52 1016.39 1016.24 1016.08 1015.90 1015.69 1015.43 1015.11 1014.74 1014.33 1013.92 1013.54 1013.26 1013.09 1013.08 1013.22 1013.51 1013.90 1014.36 1014.84 1015.31 1015.75 1016.16 1016.55 1016.95 1017.38 1017.86 1018.38 1018.94 1019.52 1020.09 1020.63 1021.13 1021.58
1016.03 1016.14 1016.29 1016.45 1016.60 1016.72 1016.77 1016.76 1016.69 1016.58 1016.44 1016.30 1016.16 1016.00 1015.82 1015.60 1015.31 1014.96 1014.55 1014.12 1013.70 1013.34 1013.09 1012.98 1013.01 1013.19 1013.48 1013.84 1014.25 1014.66 1015.05 1015.44 1015.82 1016.21 1016.64 1017.12 1017.65 1018.22 1018.81 1019.39 1019.96 1020.49 1020.97
1015.97 1016.09 1016.27 1016.46 1016.64 1016.77 1016.84 1016.83 1016.76 1016.64 1016.51 1016.37 1016.25 1016.14 1016.01 1015.84 1015.60 1015.29 1014.91 1014.47 1014.02 1013.60 1013.27 1013.05 1012.96 1013.01 1013.18 1013.43 1013.74 1014.07 1014.42 1014.76 1015.12 1015.51 1015.93 1016.41 1016.93 1017.49 1018.07 1018.66 1019.23 1019.78 1020.29
1015.95 1016.07 1016.26 1016.47 1016.66 1016.80 1016.87 1016.86 1016.78 1016.67 1016.54 1016.43 1016.34 1016.27 1016.19 1016.08 1015.91 1015.65 1015.30 1014.88 1014.42 1013.96 1013.55 1013.23 1013.02 1012.94 1012.98 1013.11 1013.32 1013.57 1013.85 1014.15 1014.49 1014.85 1015.26 1015.72 1016.22 1016.76 1017.32 1017.89 1018.45 1019.00 1019.53
1015.93 1016.05 1016.23 1016.44 1016.63 1016.77 1016.83 1016.82 1016.74 1016.62 1016.50 1016.41 1016.35 1016.32 1016.30 1016.26 1016.15 1015.95 1015.65 1015.26 1014.80 1014.31 1013.85 1013.45 1013.14 1012.94 1012.86 1012.87 1012.97 1013.14 1013.35 1013.61 1013.90 1014.24 1014.62 1015.05 1015.52 1016.02 1016.55 1017.08 1017.62 1018.17 1018.71
1015.87 1015.98 1016.14 1016.34 1016.52 1016.65 1016.70 1016.67 1016.59 1016.47 1016.36 1016.28 1016.24 1016.25 1016.28 1016.29 1016.24 1016.10 1015.85 1015.50 1015.06 1014.58 1014.08 1013.63 1013.24 1012.95 1012.77 1012.68 1012.68 1012.76 1012.91 1013.11 1013.36 1013.66 1014.00 1014.39 1014.81 1015.27 1015.75 1016.24 1016.75 1017.28 1017.82
1015.75 1015.83 1015.97 1016.15 1016.30 1016.41 1016.44 1016.41 1016.31 1016.19 1016.08 1016.01 1015.99 1016.02 1016.08 1016.13 1016.12 1016.04 1015.84 1015.54 1015.14 1014.68 1014.19 1013.72 1013.29 1012.94 1012.68 1012.51 1012.43 1012.43 1012.50 1012.64 1012.84 1013.09 1013.38 1013.72 1014.09 1014.49 1014.92 1015.37 1015.85 1016.35 1016.89
1015.54 1015.59 1015.71 1015.85 1015.98 1016.06 1016.08 1016.03 1015.93 1015.80 1015.69 1015.62 1015.60 1015.64 1015.71 1015.77 1015.80 1015.76 1015.61 1015.37 1015.02 1014.61 1014.15 1013.69 1013.25 1012.87 1012.56 1012.33 1012.19 1012.12 1012.12 1012.19 1012.33 1012.52 1012.75 1013.03 1013.34 1013.69 1014.06 1014.47 1014.92 1015.41 1015.94
1015.24 1015.27 1015.37 1015.48 1015.58 1015.64 1015.64 1015.58 1015.46 1015.33 1015.21 1015.13 1015.11 1015.13 1015.20 1015.27 1015.31 1015.29 1015.19 1014.99 1014.71 1014.36 1013.96 1013.54 1013.12 1012.75 1012.42 1012.15 1011.95 1011.82 1011.76 1011.76 1011.82 1011.94 1012.11 1012.32 1012.57 1012.86 1013.19 1013.56 1013.98 1014.46 1015.00
1014.88 1014.90 1014.98 1015.07 1015.15 1015.19 1015.17 1015.10 1014.98 1014.84 1014.71 1014.62 1014.57 1014.57 1014.61 1014.67 1014.70 1014.70 1014.63 1014.48 1014.27 1013.98 1013.65 1013.29 1012.93 1012.57 1012.25 1011.96 1011.72 1011.54 1011.41 1011.34 1011.33 1011.37 1011.47 1011.61 1011.80 1012.03 1012.32 1012.66 1013.06 1013.53 1014.07
1014.50 1014.52 1014.59 1014.67 1014.73 1014.76 1014.73 1014.65 1014.53 1014.38 1014.24 1014.12 1014.05 1014.02 1014.02 1014.04 1014.06 1014.05 1014.00 1013.90 1013.74 1013.53 1013.27 1012.99 1012.68 1012.37 1012.06 1011.77 1011.50 1011.27 1011.08 1010.94 1010.85 1010.82 1010.84 1010.92 1011.05 1011.23 1011.47 1011.78 1012.16 1012.62 1013.17
1014.14 1014.17 1014.24 1014.31 1014.37 1014.38 1014.35 1014.26 1014.13 1013.98 1013.82 1013.69 1013.58 1013.50 1013.46 1013.44 1013.43 1013.41 1013.36 1013.29 1013.18 1013.04 1012.86 1012.65 1012.41 1012.14 1011.86 1011.58 1011.29 1011.02 1010.78 1010.58 1010.42 1010.32 1010.27 1010.28 1010.35 1010.48 1010.68 1010.95 1011.31 1011.76 1012.30
1013.82 1013.87 1013.94 1014.01 1014.05 1014.06 1014.02 1013.92 1013.79 1013.63 1013.46 1013.30 1013.16 1013.05 1012.96 1012.89 1012.84 1012.80 1012.75 1012.70 1012.63 1012.55 1012.43 1012.29 1012.11 1011.90 1011.65 1011.38 1011.09 1010.80 1010.51 1010.26 1010.04 1009.88 1009.77 1009.72 1009.73 1009.81 1009.96 1010.20 1010.52 1010.95 1011.47
1013.54 1013.60 1013.67 1013.73 1013.77 1013.76 1013.70 1013.60 1013.46 1013.30 1013.12 1012.94 1012.77 1012.62 1012.48 1012.37 1012.29 1012.22 1012.17 1012.13 1012.09 1012.05 1011.99 1011.91 1011.79 1011.63 1011.42 1011.17 1010.88 1010.58 1010.28 1009.98 1009.73 1009.52 1009.36 1009.26 1009.22 1009.24 1009.35 1009.53 1009.81 1010.20 1010.69
1013.28 1013.34 1013.40 1013.45 1013.46 1013.43 1013.36 1013.25 1013.11 1012.93 1012.75 1012.55 1012.36 1012.18 1012.01 1011.86 1011.75 1011.66 1011.60 1011.56 1011.55 1011.55 1011.54 1011.51 1011.44 1011.32 1011.15 1010.92 1010.65 1010.36 1010.05 1009.75 1009.47 1009.23 1009.04 1008.90 1008.82 1008.80 1008.85 1008.97 1009.20 1009.52 1009.95
1013.01 1013.05 1013.08 1013.09 1013.08 1013.02 1012.93 1012.81 1012.66 1012.49 1012.30 1012.10 1011.89 1011.70 1011.51 1011.34 1011.20 1011.10 1011.03 1011.00 1011.01 1011.03 1011.06 1011.06 1011.03 1010.95 1010.82 1010.62 1010.38 1010.10 1009.81 1009.52 1009.25 1009.01 1008.81 1008.65 1008.54 1008.47 1008.47 1008.53 1008.68 1008.93 1009.29
1012.68 1012.69 1012.68 1012.64 1012.58 1012.50 1012.39 1012.26 1012.11 1011.94 1011.76 1011.57 1011.36 1011.16 1010.97 1010.79 1010.64 1010.53 1010.47 1010.44 1010.46 1010.50 1010.55 1010.58 1010.58 1010.52 1010.42 1010.25 1010.04 1009.79 1009.53 1009.28 1009.03 1008.81 1008.63 1008.47 1008.34 1008.25 1008.20 1008.21 1008.28 1008.45 1008.73
1012.27 1012.22 1012.15 1012.07 1011.97 1011.86 1011.74 1011.61 1011.47 1011.32 1011.15 1010.97 1010.79 1010.59 1010.40 1010.23 1010.08 1009.98 1009.91 1009.90 1009.92 1009.96 1010.01 1010.05 1010.06 1010.02 1009.93 1009.79 1009.61 1009.40 1009.18 1008.97 1008.78 1008.61 1008.45 1008.32 1008.20 1008.10 1008.02 1007.98 1007.99 1008.08 1008.27
1011.77 1011.66 1011.53 1011.41 1011.28 1011.16 1011.03 1010.92 1010.80 1010.67 1010.53 1010.38 1010.21 1010.04 1009.86 1009.70 1009.56 1009.46 1009.40 1009.38 1009.39 1009.43 1009.47 1009.50 1009.50 1009.46 1009.37 1009.24 1009.08 1008.91 1008.74 1008.58 1008.45 1008.33 1008.24 1008.15 1008.07 1007.98 1007.89 1007.82 1007.79 1007.82 1007.94
1011.18 1011.01 1010.85 1010.69 1010.56 1010.44 1010.33 1010.24 1010.16 1010.07 1009.96 1009.84 1009.70 1009.55 1009.39 1009.23 1009.10 1008.99 1008.93 1008.89 1008.89 1008.91 1008.92 1008.92 1008.89 1008.82 1008.72 1008.59 1008.44 1008.30 1008.17 1008.07 1008.00 1007.96 1007.94 1007.92 1007.89 1007.84 1007.78 1007.71 1007.65 1007.64 1007.70
Thickness
5735 5734 5731 5730 5730 5729 5729 5728 5727 5727 5727 5728 5729 5730 5731 5733 5734 5733 5731 5730 5730 5730 5730 5730 5729 5728 5727 5726 5726 5726 5726 5726 5725 5724 5723 5722 5721 5720 5720 5719 5718 5718 5716
5730 5728 5727 5726 5725 5725 5723 5722 5723 5723 5723 5724 5725 5726 5727 5729 5730 5731 5729 5729 5729 5729 5729 5729 5727 5727 5726 5726 5726 5725 5725 5725 5725 5724 5724 5723 5722 5721 5720 5719 5718 5718 5717
5724 5723 5723 5722 5721 5720 5719 5719 5719 5719 5719 5721 5722 5723 5724 5725 5726 5727 5728 5728 5727 5727 5728 5727 5727 5726 5726 5725 5725 5725 5725 5724 5724 5724 5724 5723 5722 5721 5720 5719 5718 5718 5717
5719 5717 5717 5717 5715 5715 5715 5715 5714 5714 5714 5715 5716 5718 5721 5722 5723 5724 5725 5725 5726 5726 5726 5726 5725 5725 5725 5724 5724 5724 5724 5724 5724 5724 5724 5723 5722 5721 5721 5720 5719 5718 5717
5715 5712 5711 5711 5710 5709 5710 5710 5709 5708 5706 5707 5710 5714 5717 5719 5721 5722 5723 5724 5725 5726 5726 5725 5724 5724 5724 5724 5724 5724 5724 5723 5723 5723 5723 5723 5722 5722 5721 5720 5719 5718 5717
5710 5707 5706 5705 5704 5703 5703 5702 5701 5702 5701 5702 5705 5709 5712 5715 5718 5719 5721 5723 5723 5724 5725 5725 5724 5723 5723 5722 5723 5723 5723 5723 5723 5723 5723 5723 5723 5722 5721 5721 5720 5719 5718
5705 5703 5701 5699 5699 5698 5696 5696 5695 5694 5695 5698 5698 5699 5705 5713 5716 5718 5719 5720 5721 5722 5723 5722 5722 5722 5722 5721 5721 5722 5722 5722 5722 5723 5723 5723 5723 5722 5721 5721 5721 5720 5719
5702 5700 5697 5694 5693 5692 5691 5691 5690 5687 5688 5691 5689 5687 5689 5698 5706 5715 5715 5715 5716 5717 5717 5718 5718 5719 5719 5720 5720 5720 5721 5721 5721 5722 5722 5723 5722 5722 5722 5721 5721 5720 5720
5700 5697 5693 5691 5689 5687 5686 5686 5685 5683 5680 5683 5685 5682 5679 5680 5687 5699 5704 5707 5708 5709 5710 5711 5712 5714 5715 5716 5718 5718 5719 5720 5720 5721 5721 5721 5722 5721 5721 5721 5721 5720 5720
5699 5696 5692 5689 5686 5684 5682 5682 5682 5678 5676 5675 5677 5680 5679 5678 5673 5677 5687 5694 5699 5700 5702 5704 5706 5708 5710 5712 5714 5715 5716 5717 5718 5718 5719 5720 5720 5720 5720 5720 5720 5720 5720
5698 5695 5691 5687 5684 5680 5679 5677 5675 5673 5671 5669 5669 5670 5672 5673 5672 5668 5669 5678 5685 5691 5695 5697 5699 5702 5704 5706 5708 5710 5713 5714 5715 5716 5716 5718 5719 5719 5720 5719 5719 5719 5719
5697 5695 5690 5686 5681 5678 5675 5672 5670 5668 5666 5665 5663 5663 5662 5662 5663 5663 5663 5666 5671 5679 5686 5690 5692 5695 5698 5700 5703 5705 5708 5710 5711 5712 5714 5715 5716 5717 5718 5718 5718 5718 5718
5692 5690 5686 5681 5677 5674 5671 5668 5666 5663 5661 5659 5657 5656 5657 5657 5658 5658 5656 5657 5660 5667 5674 5680 5685 5688 5691 5694 5697 5699 5702 5704 5706 5709 5710 5713 5714 5715 5716 5717 5718 5718 5718
5687 5685 5681 5677 5673 5670 5667 5664 5661 5658 5657 5655 5653 5651 5650 5650 5651 5651 5650 5649 5649 5654 5661 5667 5675 5680 5683 5686 5689 5692 5694 5697 5700 5703 5706 5709 5711 5713 5714 5715 5716 5717 5717
5684 5681 5677 5674 5670 5666 5663 5659 5655 5653 5651 5649 5647 5646 5644 5644 5644 5645 5645 5644 5641 5640 5646 5655 5662 5669 5673 5677 5681 5684 5687 5690 5693 5697 5700 5704 5707 5710 5711 5713 5714 5715 5716
5680 5676 5673 5669 5665 5662 5658 5654 5651 5648 5645 5642 5640 5638 5637 5636 5636 5636 5637 5637 5637 5636 5637 5644 5650 5658 5663 5668 5672 5675 5679 5683 5687 5691 5695 5698 5702 5705 5708 5710 5712 5713 5714
5677 5672 5668 5664 5660 5657 5653 5649 5645 5642 5639 5636 5634 5632 5630 5629 5627 5627 5627 5628 5629 5630 5630 5636 5642 5648 5652 5657 5662 5667 5671 5675 5680 5685 5689 5693 5697 5701 5704 5707 5709 5711 5712
5674 5670 5665 5661 5656 5652 5648 5644 5639 5636 5632 5629 5627 5624 5622 5621 5620 5618 5617 5617 5619 5621 5622 5624 5629 5635 5640 5647 5652 5658 5663 5668 5674 5680 5684 5689 5693 5697 5700 5703 5705 5708 5710
5671 5666 5661 5656 5651 5646 5642 5638 5634 5630 5626 5623 5620 5617 5615 5613 5611 5609 5608 5608 5609 5612 5615 5616 5620 5626 5632 5638 5643 5649 5655 5661 5667 5673 5678 5683 5688 5691 5695 5698 5701 5704 5706
5667 5662 5657 5652 5647 5642 5637 5633 5628 5623 5619 5616 5613 5610 5608 5606 5604 5602 5601 5600 5601 5601 5603 5606 5611 5616 5622 5629 5634 5639 5644 5652 5658 5665 5671 5677 5681 5685 5690 5694 5697 5700 5703
5664 5659 5653 5647 5642 5637 5633 5628 5622 5617 5613 5609 5606 5604 5602 5601 5599 5597 5595 5594 5593 5592 5594 5596 5601 5606 5612 5617 5623 5631 5636 5642 5650 5657 5663 5669 5674 5679 5683 5688 5692 5696 5700
5660 5654 5648 5642 5637 5632 5627 5619 5613 5609 5605 5601 5598 5597 5595 5594 5594 5592 5589 5587 5585 5584 5585 5586 5590 5595 5601 5607 5614 5620 5625 5630 5637 5649 5653 5659 5666 5672 5678 5683 5689 5693 5696
5655 5649 5643 5638 5632 5626 5620 5614 5608 5602 5598 5595 5592 5590 5589 5590 5589 5587 5584 5582 5580 5579 5578 5579 5582 5586 5591 5597 5602 5608 5613 5619 5627 5636 5642 5649 5656 5663 5670 5677 5683 5688 5691
5650 5644 5638 5633 5627 5623 5617 5609 5603 5597 5593 5590 5587 5585 5583 5582 5581 5579 5577 5576 5575 5575 5575 5575 5578 5581 5585 5589 5593 5598 5603 5611 5621 5628 5635 5638 5646 5653 5660 5668 5675 5680 5685
5645 5640 5634 5629 5623 5619 5613 5605 5597 5593 5590 5587 5585 5583 5580 5578 5576 5573 5570 5569 5569 5570 5571 5573 5576 5578 5580 5583 5585 5589 5594 5600 5609 5618 5627 5632 5638 5643 5650 5657 5664 5671 5676
5641 5635 5630 5625 5620 5615 5609 5602 5593 5589 5586 5583 5581 5579 5576 5573 5570 5566 5563 5562 5561 5562 5564 5567 5568 5571 5573 5576 5579 5582 5587 5592 5600 5608 5619 5624 5629 5634 5639 5646 5654 5660 5666